Location: La Comballaz
(46.3780°N, 7.0817°E)
Time: 08:30:06
(UTC+00:00)

SO-50 - Visible Passes

Search period start: 06 December 2022 00:00
Search period end: 16 December 2022 00:00
Orbit: 584 x 697 km, 64.6° (Epoch: 05 December)

Date Brightness Start Highest point End Pass type
(mag) Time Alt. Az. Time Alt. Az. Time Alt. Az.
06 Dec ? 04:32:41 10° S 04:36:53 30° ESE 04:41:11 10° NE visible
06 Dec ? 06:12:29 10° WSW 06:17:09 45° NW 06:21:56 10° NNE visible
07 Dec ? 04:56:05 10° SSW 05:00:51 65° ESE 05:05:46 10° NE visible
08 Dec ? 03:42:39 15° SSE 03:45:04 21° ESE 03:48:43 10° ENE visible
08 Dec ? 05:20:21 11° SW 05:25:03 63° NW 05:29:58 10° NNE visible
09 Dec ? 04:08:03 40° SSE 04:08:55 44° ESE 04:13:36 10° NE visible
09 Dec ? 05:45:43 13° WSW 05:49:28 34° NW 05:53:59 10° NNE visible
10 Dec ? 02:55:13 12° E 02:55:13 12° E 02:55:50 10° ENE visible
10 Dec ? 04:32:51 85° WSW 04:32:59 88° NW 04:37:58 10° NE visible
10 Dec ? 06:10:30 10° W 06:14:07 21° NNW 06:17:50 10° NNE visible
11 Dec ? 03:19:42 19° ENE 03:19:42 19° ENE 03:21:19 10° NE visible
11 Dec ? 04:57:19 45° NW 04:57:19 45° NW 05:02:03 10° NNE visible
12 Dec ? 03:43:55 24° NE 03:43:55 24° NE 03:45:53 10° NE visible
12 Dec ? 05:21:32 26° NW 05:21:49 26° NW 05:25:58 10° NNE visible
13 Dec ? 04:07:58 25° NNE 04:07:58 25° NNE 04:10:05 10° NNE visible
13 Dec ? 05:45:34 16° NW 05:46:33 17° NNW 05:49:46 10° NNE visible
14 Dec ? 04:31:54 22° N 04:31:54 22° N 04:34:05 10° NNE visible
14 Dec ? 06:09:35 10° NW 06:11:29 12° NNW 06:13:22 10° N visible
15 Dec ? 04:55:43 18° N 04:55:43 18° N 04:57:55 10° NNE visible
